SCP
-0 -0 -0 -0 -0 0 0 -0 0 0 -0 -0 0 0 0 0 0 0 -0 -0 -0 -0 -0 -0 -0 -0 -0 -0 -0 -0 -0 0 0 0 0 0 0 0 0 0 -0 -0 -0 -0 -0 -0 -0 -0 -0
0 0 -0 0 0 0 0 0 0 -0 -0 -0 0 0 0 -0 0 0 -0 -0 -0 -0 -0 -0 -0 -0 -0 -0 -0 -0 -0 0 0 0 0 0 0 0 0 0 0 -0 -0 -0 -0 -0 -0 -0 -0
0 0 0 0 0 0 0 0 0 -0 -0 -0 0 0 0 0 0 0 0 -0 -0 -0 -0 -0 -0 -0 -0 -0 -0 -0 -0 -0 0 0 0 0 0 0 0 -0 -0 -0 -0 -0 -0 -0 -0 -0 -0
0 0 0 0 0 0 0 0 0 0 0 -0 0 0 -0 0 0 0 -0 -0 -0 -0 -0 -0 -0 -0 -0 -0 -0 -0 -0 -0 -0 -0 0 0 0 0 0 -0 0 0 -0 -0 -0 -0 -0 0 0
0 0 0 0 0 0 0 0 0 0 -0 -0 -0 -0 -0 0 0 -0 -0 -0 -0 -0 -0 -0 -0 -0 -0 -0 -0 -0 -0 -0 -0 -0 -0 0 0 0 0 -0 -0 -0 -0 -0 -0 -0 -0 -0 -0
-0 0 0 -0 0 0 0 0 0 0 -0 -0 -0 -0 0 0 0 -0 -0 -0 -0 -0 -0 0 0 0 -0 -0 -0 -0 0 0 0 -0 -0 -0 -0 0 -0 -0 -0 -0 0 -0 -0 -0 -0 -0 -0
-0 -0 0 0 0 0 0 0 0 0 0 0 0 0 0 0 0 0 -0 -0 -0 -0 -0 0 0 0 0 0 0 0 0 0 0 0 0 0 0 0 0 0 0 0 0 -0 -0 -0 -0 -0 -0
0 0 0 0 0 0 0 0 0 0 0 0 0 0 0 -0 -0 -0 -0 -0 -0 -0 -0 -0 -0 0 -0 -0 0 0 0 0 0 0 0 0 0 0 0 0 0 -0 -0 -0 -0 -0 -0 -0 -0
0 0 0 0 0 0 0 0 0 0 0 0 0 0 0 -0 -0 0 -0 -0 -0 -0 -0 -0 -0 -0 -0 -0 -0 0 0 0 0 0 0 0 0 0 0 0 0 -0 -0 -0 -0 -0 -0 -0 -0
0 0 0 0 0 0 0 0 0 0 0 0 0 0 -0 -0 -0 -0 -0 -0 -0 -0 -0 0 -0 -0 0 0 0 0 0 0 0 0 0 0 0 0 0 0 0 -0 -0 -0 -0 -0 -0 -0 -0
0 0 0 0 0 0 0 0 0 0 0 0 0 0 0 -0 -0 -0 -0 -0 0 0 0 0 0 0 0 0 0 0 0 0 0 0 0 0 0 0 0 0 0 0 -0 0 -0 -0 -0 0 -0
0 0 0 0 0 0 0 0 0 0 0 0 0 0 0 0 -0 -0 -0 -0 0 0 0 0 0 0 0 0 0 0 0 0 0 0 0 0 0 0 0 0 0 0 0 0 -0 -0 0 -0 0
0 0 0 0 0 0 0 0 0 0 0 0 0 0 0 0 0 0 0 -0 -0 0 0 0 0 1 1 1 0 0 0 0 0 0 0 0 0 0 0 0 0 0 0 0 0 0 0 0 0
0 0 0 0 0 0 0 0 0 0 0 0 0 0 0 0 0 0 0 -0 0 0 0 0 0 1 0 1 1 1 0 0 0 0 0 0 0 0 0 0 0 0 0 0 0 0 0 0 0
0 0 0 0 0 0 0 0 0 0 0 0 0 0 0 0 0 0 0 -0 0 0 0 0 0 0 0 0 1 1 1 1 0 0 0 0 0 0 0 0 0 0 0 0 0 0 0 0 0
0 0 0 0 0 0 0 0 0 0 0 0 0 0 0 0 0 0 0 0 0 0 0 0 0 0 0 -0 1 1 0 1 1 0 0 0 0 0 0 0 0 0 0 0 0 0 0 0 0
0 0 0 0 0 0 0 0 0 0 0 0 0 0 0 0 0 0 0 0 0 0 0 0 0 0 0 0 0 0 0 1 1 1 0 0 0 0 0 0 0 0 0 0 0 0 0 0 0
0 0 0 0 0 0 0 0 0 0 0 0 0 0 0 0 0 0 0 0 1 1 1 0 0 0 1 1 1 0 0 1 0 1 1 1 1 0 0 0 0 0 0 0 0 1 0 0 0
0 0 0 0 0 0 0 0 0 0 0 0 0 1 1 1 0 1 1 1 1 2 2 1 1 1 1 1 1 1 1 1 1 1 0 1 1 1 1 0 1 1 2 2 2 1 1 1 0
0 0 0 0 0 0 0 0 0 0 0 0 0 0 1 1 1 1 2 2 1 2 1 1 1 1 1 2 2 1 1 1 0 1 1 1 1 0 1 1 1 1 1 1 1 1 1 1 0
0 0 0 0 0 0 0 0 0 0 0 0 0 0 0 0 0 0 1 1 2 2 2 1 2 2 2 2 2 2 2 2 1 1 1 1 1 1 2 1 1 1 2 1 1 1 0 1 1
0 0 0 0 0 0 0 0 0 0 0 0 0 0 0 0 0 0 0 0 0 0 2 4 2 3 2 2 3 3 3 2 1 2 1 3 2 1 1 2 2 0 0 1 2 0 0 0 1
0 0 0 0 0 0 0 0 0 0 0 0 0 0 0 0 0 0 0 0 0 0 0 0 3 4 7 4 5 3 4 3 5 4 5 5 6 5 3 2 2 1 1 0 0 0 0 0 0
0 0 0 0 0 0 0 0 0 0 0 0 0 0 0 0 0 0 0 0 0 0 0 0 0 0 0 0 0 1 3 5 5 6 6 4 4 3 2 1 2 2 1 0 0 0 -0 0 0
0 0 0 0 0 0 0 0 0 0 0 0 0 0 0 0 0 0 0 0 0 0 0 0 0 0 0 0 0 0 0 0 0 1 1 2 2 2 1 2 2 1 1 0 0 -0 0 0 0
0 0 0 0 0 0 0 0 0 0 0 0 0 0 0 0 0 0 0 0 0 0 0 0 0 0 0 0 0 0 0 0 0 0 0 0 0 0 1 1 1 1 1 1 1 1 0 0 1
0 0 0 0 0 0 0 0 0 0 0 0 0 0 0 0 0 0 0 0 0 0 0 0 0 0 0 0 0 0 0 0 0 0 0 0 0 0 0 0 0 0 1 1 1 1 1 1 1
0 0 0 0 0 0 0 0 0 0 0 0 0 0 0 0 0 0 0 0 0 0 0 0 0 0 0 0 0 0 0 0 0 0 0 0 0 0 0 0 0 0 0 0 0 1 1 1 1
0 0 0 0 0 0 0 0 0 0 0 0 0 0 0 0 0 0 0 0 0 0 0 0 0 0 0 0 0 0 0 0 0 0 0 0 0 0 0 0 0 0 0 0 0 0 0 1 1
0 0 0 0 0 0 0 0 0 0 0 0 0 0 0 0 0 0 0 0 0 0 0 0 0 0 0 0 0 0 0 0 0 0 0 0 0 0 0 0 0 0 0 0 0 0 0 0 1
Wind_Speed_500mb
14 14 15 11 15 11 9 12 4 9 5 8 2 6 9 14 15 9 14 34 52 55 58 56 51 45 38 36 35 33 29 26 23 22 21 19 19 19 18 16 15 15 16 18 19 21 24 26 26
9 9 10 16 15 16 14 3 9 15 21 2 6 12 16 2 4 8 33 37 54 55 59 57 52 47 41 39 36 33 30 26 23 20 19 18 16 16 15 13 12 12 13 15 16 18 19 22 21
4 3 19 9 14 16 10 4 13 18 15 1 3 6 11 8 4 16 16 52 55 51 54 55 52 48 44 39 36 33 30 26 23 20 18 16 15 13 12 12 10 9 10 12 15 17 17 17 17
4 8 12 19 21 6 9 12 19 22 16 17 11 10 8 6 2 14 42 56 53 48 46 54 52 49 45 41 36 33 29 26 23 20 16 14 13 12 10 8 9 7 8 11 12 16 18 17 15
8 10 12 18 13 1 2 15 24 18 8 7 12 5 4 9 13 25 53 55 52 48 43 54 51 48 45 41 37 33 30 26 22 19 16 13 12 11 10 8 5 6 9 12 12 14 17 19 16
17 10 13 18 11 7 3 19 23 22 5 7 10 7 10 11 20 40 49 51 49 49 45 52 50 47 45 42 38 34 31 27 24 20 16 13 11 10 9 7 4 4 7 12 14 14 14 16 17
23 14 4 1 11 11 9 23 20 16 8 7 3 8 11 17 26 41 44 47 47 46 46 52 51 48 45 42 39 35 31 28 24 21 17 14 10 8 6 5 4 4 5 8 12 13 12 12 15
11 10 11 9 19 20 10 14 16 11 13 8 4 6 16 25 32 39 42 44 42 43 44 47 52 51 48 44 40 35 31 27 24 21 19 14 10 7 5 3 5 9 8 7 7 9 11 11 12
7 11 9 9 15 8 8 12 22 6 5 8 10 17 16 33 37 41 42 43 45 46 46 44 46 46 43 40 43 38 34 30 28 25 22 18 11 8 4 6 5 12 12 15 15 11 7 6 8
15 12 6 4 4 8 12 13 16 7 15 15 17 16 21 29 37 43 46 47 51 51 51 48 46 44 43 37 39 43 39 36 33 30 26 20 19 15 13 9 7 11 13 13 12 11 9 9 3
8 6 6 5 8 13 16 14 13 10 11 20 14 14 15 22 32 37 40 42 48 49 50 52 52 48 45 41 36 35 33 32 33 33 29 23 19 16 11 10 9 10 11 6 7 5 3 6 4
13 3 5 1 3 13 15 19 16 7 19 15 5 4 10 18 26 34 38 41 45 53 55 54 60 62 55 43 40 35 35 34 32 34 34 29 24 20 18 15 14 12 10 12 8 5 7 3 1
15 8 5 6 12 13 17 18 14 20 12 15 10 4 5 13 20 27 31 35 40 47 51 54 56 67 61 52 37 36 36 35 31 31 34 29 25 23 20 19 17 15 13 9 9 9 6 5 2
3 5 7 8 12 12 17 17 13 6 18 16 11 9 13 15 18 24 33 36 41 44 50 51 55 67 62 66 50 49 39 34 34 30 30 37 28 27 22 21 20 18 16 14 13 13 12 10 9
4 16 9 5 4 3 13 24 22 17 18 22 18 17 17 22 22 26 29 37 39 41 46 52 53 60 64 67 67 60 46 38 33 32 33 37 35 32 28 22 22 22 21 21 17 16 17 16 15
9 14 15 13 5 7 11 15 3 13 16 21 21 21 23 26 31 30 28 32 34 35 44 49 49 51 55 59 62 56 43 53 38 36 34 37 40 36 32 29 24 24 24 22 21 19 18 18 18
10 7 6 10 7 7 5 13 5 15 14 13 16 21 26 25 29 33 31 30 31 32 35 43 51 50 48 52 53 59 61 58 53 48 39 47 40 35 34 27 23 34 25 24 23 22 20 18 17
2 9 9 8 6 12 16 16 12 9 12 15 22 26 30 24 13 17 21 27 29 29 30 35 40 40 42 40 45 37 45 53 43 45 44 47 42 40 37 27 25 23 19 23 23 25 21 21 19
1 6 8 4 5 17 16 19 18 6 14 20 25 31 35 28 17 18 18 15 19 23 28 32 37 41 43 42 40 37 39 39 40 45 44 43 44 49 39 35 32 19 25 28 28 31 23 22 20
7 10 3 15 5 18 22 28 21 4 15 25 31 36 38 34 29 30 22 14 9 15 21 26 32 37 41 37 37 34 34 34 33 34 49 42 40 34 29 36 33 34 36 36 35 36 35 21 20
1 14 10 17 22 31 15 34 22 16 17 24 30 34 39 40 33 35 31 20 9 8 11 19 26 31 34 34 32 33 27 29 31 31 32 37 38 38 42 41 41 49 46 52 70 65 31 27 22
14 9 16 21 20 15 8 8 20 20 14 26 34 37 39 43 38 34 31 23 15 11 16 12 17 23 24 29 29 30 27 27 25 27 28 25 33 33 38 39 46 55 54 71 57 50 34 27 24
10 21 23 27 28 27 26 12 16 11 13 23 33 36 36 38 39 40 31 26 20 9 2 10 27 28 24 20 23 24 25 23 23 23 31 30 32 32 35 38 36 36 28 32 65 48 43 24 21
16 21 32 22 18 20 12 10 10 11 13 21 28 30 31 32 34 38 41 39 40 43 30 15 21 27 31 34 37 39 39 30 30 28 26 22 17 15 19 24 29 29 28 23 47 64 59 64 50
16 19 13 12 14 3 11 14 18 15 15 19 23 26 25 29 34 34 40 43 43 47 49 50 52 41 33 24 23 25 29 38 32 24 25 24 14 9 6 2 11 17 17 23 21 44 71 70 78
13 12 12 12 13 11 14 11 14 14 10 13 16 17 18 24 30 39 41 41 44 53 50 44 43 46 46 43 41 33 29 30 29 26 17 13 13 11 5 3 4 6 9 16 23 23 37 63 75
8 10 12 15 13 13 8 9 17 8 4 9 13 12 13 17 21 30 41 40 39 39 38 39 41 40 39 36 36 37 36 33 28 17 16 10 13 10 6 6 2 2 1 7 15 24 33 40 46
15 7 10 11 7 10 8 10 12 5 14 13 13 8 7 16 27 33 35 40 34 28 23 24 25 28 30 36 40 38 39 32 28 21 9 6 3 4 1 5 5 3 2 4 6 16 28 37 45
10 14 8 9 8 8 10 4 10 9 5 12 15 5 10 17 25 28 15 20 34 30 19 23 24 29 33 30 29 36 38 35 31 25 14 10 9 7 1 6 10 11 9 9 10 13 16 21 28
11 10 11 10 9 11 12 13 14 2 9 15 21 12 13 20 21 21 5 11 22 10 13 21 25 27 31 30 35 43 44 38 36 27 24 23 15 13 8 6 6 7 5 7 7 8 13 16 23
Wind_Direction_500mb
293 310 321 293 259 237 135 93 93 35 20 38 215 233 325 330 339 26 142 159 160 160 167 168 166 165 165 163 161 156 151 148 145 143 143 143 143 142 143 145 145 144 140 133 126 123 128 128 127
288 310 281 275 257 230 116 100 56 4 11 47 263 243 248 56 11 110 144 159 160 161 166 168 167 166 165 166 165 158 153 151 149 146 147 149 151 151 147 147 152 156 159 156 150 144 137 143 149
281 233 265 256 250 252 123 86 350 339 320 332 249 286 341 42 50 157 167 158 159 160 164 169 167 168 167 170 168 162 156 153 151 147 149 153 154 156 156 155 156 162 179 181 171 162 156 155 150
229 215 230 249 214 77 324 358 349 324 306 248 257 286 112 63 61 163 154 155 160 161 163 167 168 170 171 172 172 166 161 157 153 149 146 146 151 156 161 168 168 176 193 194 188 179 178 173 170
204 235 232 236 223 259 81 353 333 333 294 263 235 237 64 36 103 143 153 157 159 163 167 169 170 173 174 175 176 171 166 161 158 154 148 144 147 156 162 171 182 180 187 196 190 184 186 189 188
216 267 227 218 150 135 73 342 328 330 5 223 198 210 77 105 120 144 155 158 163 166 168 175 175 178 179 180 181 178 173 170 167 162 156 152 152 157 160 162 180 185 176 181 188 182 177 185 194
265 236 260 216 147 160 24 339 354 337 328 150 54 166 101 129 135 150 157 162 168 170 170 180 180 182 185 187 187 185 182 178 174 172 171 167 161 162 164 156 147 148 157 173 182 185 184 185 194
255 265 207 201 176 103 19 343 8 352 67 114 139 70 117 159 147 152 159 166 174 176 177 179 184 187 189 192 193 193 191 188 185 184 185 181 179 182 177 159 143 136 127 122 143 181 195 197 202
223 239 202 138 193 84 19 349 20 18 167 139 100 75 111 151 154 156 164 173 179 184 185 185 186 189 189 195 197 196 198 197 196 197 196 190 181 197 194 186 174 142 123 112 110 113 122 170 194
244 262 114 61 29 313 322 336 357 328 165 146 124 87 121 151 165 172 178 184 187 189 190 189 190 196 192 197 203 200 204 203 204 205 207 194 202 195 182 207 185 158 143 134 127 121 111 104 175
180 285 129 172 315 315 311 294 332 319 131 52 56 105 145 163 179 187 192 197 198 197 195 192 189 198 198 199 202 201 205 205 208 209 209 204 207 216 206 201 191 182 178 168 171 146 101 195 185
216 162 219 29 308 310 306 322 301 314 11 330 5 52 158 185 195 197 203 205 204 203 200 197 202 209 199 203 203 208 206 210 208 215 217 212 210 214 200 198 197 190 204 208 203 228 210 183 177
241 160 204 251 286 293 299 281 315 282 354 353 0 335 218 221 218 215 212 212 208 207 206 203 204 212 212 198 209 209 214 217 216 216 221 212 210 211 210 211 204 207 215 218 225 218 227 239 262
89 249 260 273 286 271 277 272 283 195 334 324 324 293 258 246 238 229 221 215 211 207 208 205 206 217 216 215 226 225 219 220 218 222 220 222 218 220 215 220 218 220 221 223 222 246 245 257 257
214 259 192 175 2 121 308 253 230 268 321 314 303 300 287 261 251 246 239 226 221 215 206 205 207 216 222 222 221 227 226 225 227 225 227 230 229 233 220 221 224 227 226 227 241 248 255 252 258
240 240 215 128 283 133 294 263 72 277 331 302 302 312 311 279 260 257 254 242 229 219 212 204 208 216 221 220 228 228 226 240 229 227 227 233 232 228 235 231 233 235 234 238 241 241 245 254 250
198 227 252 177 121 321 253 311 291 294 313 318 331 330 331 302 260 256 261 253 238 233 223 215 212 211 219 222 220 222 224 238 237 239 234 239 235 233 239 232 232 242 238 237 244 251 248 250 251
142 233 202 258 104 295 261 269 306 15 328 5 5 0 356 345 315 292 275 256 243 235 226 220 218 216 214 218 224 228 232 239 231 231 231 243 243 243 239 233 225 237 236 240 241 242 244 240 238
31 271 285 305 76 298 275 284 282 355 16 22 17 15 8 4 352 337 317 292 241 233 227 223 219 219 214 217 219 225 225 229 232 236 238 239 248 233 227 223 224 226 222 232 237 252 252 248 247
253 269 288 275 310 302 287 289 279 71 49 41 26 22 12 7 359 351 355 342 304 251 237 229 222 221 220 218 221 222 225 227 229 235 237 242 249 243 239 240 233 242 249 252 260 259 251 239 242
237 319 326 312 309 270 279 266 216 133 80 43 31 25 17 9 9 4 2 353 348 297 255 231 225 218 221 213 222 222 227 220 229 226 236 239 240 242 242 240 248 257 256 253 255 249 288 238 219
267 9 290 297 305 302 20 295 184 156 134 38 23 22 18 14 13 8 8 9 357 294 244 210 212 210 218 214 215 214 222 234 231 229 227 222 237 249 239 249 259 256 262 252 254 238 289 256 258
350 319 293 292 288 290 251 244 116 141 129 17 14 19 16 18 22 16 30 42 47 30 301 231 185 180 182 205 200 215 212 226 222 216 216 220 220 224 237 249 258 276 268 257 237 245 264 299 267
305 287 281 278 256 241 94 267 106 57 12 3 14 21 18 26 34 36 35 48 68 66 73 121 180 180 191 199 205 201 195 193 195 190 190 204 208 213 239 258 259 253 249 253 229 244 230 238 246
304 303 276 233 202 297 123 270 59 86 35 19 17 25 27 37 45 47 39 33 58 67 58 67 74 96 107 157 168 171 160 169 153 159 173 172 145 133 195 286 270 258 245 226 230 222 226 240 222
315 318 299 287 292 325 185 249 104 67 66 38 32 42 39 55 57 60 64 54 40 51 55 53 53 63 69 77 81 82 90 96 92 76 62 111 136 130 155 212 285 233 250 256 239 242 232 231 236
96 262 16 286 235 264 230 137 148 106 73 30 25 36 60 70 84 70 76 53 44 56 41 50 55 57 57 61 65 71 72 73 65 82 62 44 73 86 84 92 93 39 155 257 237 247 241 234 239
290 52 218 197 262 263 210 255 274 92 360 4 15 45 112 113 107 103 61 37 19 23 34 35 46 53 53 50 52 52 52 52 66 73 80 17 43 160 226 297 298 312 321 298 257 269 254 245 244
178 207 241 304 273 277 285 264 79 327 15 334 340 327 172 166 141 143 59 5 13 29 33 63 45 50 49 44 40 43 35 27 17 33 17 12 347 336 321 281 288 289 286 272 268 267 264 262 260
273 265 256 267 220 258 307 273 43 104 358 328 311 274 216 194 189 182 206 330 342 28 59 40 41 29 24 28 23 23 16 5 1 346 342 354 338 330 354 312 294 281 292 301 288 276 259 270 276
Wind_Speed_850mb
14 14 15 11 15 11 9 12 4 9 5 8 2 6 9 14 15 9 14 34 52 55 58 56 51 45 38 36 35 33 29 26 23 22 21 19 19 19 18 16 15 15 16 18 19 21 24 26 26
9 9 10 16 15 16 14 3 9 15 21 2 6 12 16 2 4 8 33 37 54 55 59 57 52 47 41 39 36 33 30 26 23 20 19 18 16 16 15 13 12 12 13 15 16 18 19 22 21
4 3 19 9 14 16 10 4 13 18 15 1 3 6 11 8 4 16 16 52 55 51 54 55 52 48 44 39 36 33 30 26 23 20 18 16 15 13 12 12 10 9 10 12 15 17 17 17 17
4 8 12 19 21 6 9 12 19 22 16 17 11 10 8 6 2 14 42 56 53 48 46 54 52 49 45 41 36 33 29 26 23 20 16 14 13 12 10 8 9 7 8 11 12 16 18 17 15
8 10 12 18 13 1 2 15 24 18 8 7 12 5 4 9 13 25 53 55 52 48 43 54 51 48 45 41 37 33 30 26 22 19 16 13 12 11 10 8 5 6 9 12 12 14 17 19 16
17 10 13 18 11 7 3 19 23 22 5 7 10 7 10 11 20 40 49 51 49 49 45 52 50 47 45 42 38 34 31 27 24 20 16 13 11 10 9 7 4 4 7 12 14 14 14 16 17
23 14 4 1 11 11 9 23 20 16 8 7 3 8 11 17 26 41 44 47 47 46 46 52 51 48 45 42 39 35 31 28 24 21 17 14 10 8 6 5 4 4 5 8 12 13 12 12 15
11 10 11 9 19 20 10 14 16 11 13 8 4 6 16 25 32 39 42 44 42 43 44 47 52 51 48 44 40 35 31 27 24 21 19 14 10 7 5 3 5 9 8 7 7 9 11 11 12
7 11 9 9 15 8 8 12 22 6 5 8 10 17 16 33 37 41 42 43 45 46 46 44 46 46 43 40 43 38 34 30 28 25 22 18 11 8 4 6 5 12 12 15 15 11 7 6 8
15 12 6 4 4 8 12 13 16 7 15 15 17 16 21 29 37 43 46 47 51 51 51 48 46 44 43 37 39 43 39 36 33 30 26 20 19 15 13 9 7 11 13 13 12 11 9 9 3
8 6 6 5 8 13 16 14 13 10 11 20 14 14 15 22 32 37 40 42 48 49 50 52 52 48 45 41 36 35 33 32 33 33 29 23 19 16 11 10 9 10 11 6 7 5 3 6 4
13 3 5 1 3 13 15 19 16 7 19 15 5 4 10 18 26 34 38 41 45 53 55 54 60 62 55 43 40 35 35 34 32 34 34 29 24 20 18 15 14 12 10 12 8 5 7 3 1
15 8 5 6 12 13 17 18 14 20 12 15 10 4 5 13 20 27 31 35 40 47 51 54 56 67 61 52 37 36 36 35 31 31 34 29 25 23 20 19 17 15 13 9 9 9 6 5 2
3 5 7 8 12 12 17 17 13 6 18 16 11 9 13 15 18 24 33 36 41 44 50 51 55 67 62 66 50 49 39 34 34 30 30 37 28 27 22 21 20 18 16 14 13 13 12 10 9
4 16 9 5 4 3 13 24 22 17 18 22 18 17 17 22 22 26 29 37 39 41 46 52 53 60 64 67 67 60 46 38 33 32 33 37 35 32 28 22 22 22 21 21 17 16 17 16 15
9 14 15 13 5 7 11 15 3 13 16 21 21 21 23 26 31 30 28 32 34 35 44 49 49 51 55 59 62 56 43 53 38 36 34 37 40 36 32 29 24 24 24 22 21 19 18 18 18
10 7 6 10 7 7 5 13 5 15 14 13 16 21 26 25 29 33 31 30 31 32 35 43 51 50 48 52 53 59 61 58 53 48 39 47 40 35 34 27 23 34 25 24 23 22 20 18 17
2 9 9 8 6 12 16 16 12 9 12 15 22 26 30 24 13 17 21 27 29 29 30 35 40 40 42 40 45 37 45 53 43 45 44 47 42 40 37 27 25 23 19 23 23 25 21 21 19
1 6 8 4 5 17 16 19 18 6 14 20 25 31 35 28 17 18 18 15 19 23 28 32 37 41 43 42 40 37 39 39 40 45 44 43 44 49 39 35 32 19 25 28 28 31 23 22 20
7 10 3 15 5 18 22 28 21 4 15 25 31 36 38 34 29 30 22 14 9 15 21 26 32 37 41 37 37 34 34 34 33 34 49 42 40 34 29 36 33 34 36 36 35 36 35 21 20
1 14 10 17 22 31 15 34 22 16 17 24 30 34 39 40 33 35 31 20 9 8 11 19 26 31 34 34 32 33 27 29 31 31 32 37 38 38 42 41 41 49 46 52 70 65 31 27 22
14 9 16 21 20 15 8 8 20 20 14 26 34 37 39 43 38 34 31 23 15 11 16 12 17 23 24 29 29 30 27 27 25 27 28 25 33 33 38 39 46 55 54 71 57 50 34 27 24
10 21 23 27 28 27 26 12 16 11 13 23 33 36 36 38 39 40 31 26 20 9 2 10 27 28 24 20 23 24 25 23 23 23 31 30 32 32 35 38 36 36 28 32 65 48 43 24 21
16 21 32 22 18 20 12 10 10 11 13 21 28 30 31 32 34 38 41 39 40 43 30 15 21 27 31 34 37 39 39 30 30 28 26 22 17 15 19 24 29 29 28 23 47 64 59 64 50
16 19 13 12 14 3 11 14 18 15 15 19 23 26 25 29 34 34 40 43 43 47 49 50 52 41 33 24 23 25 29 38 32 24 25 24 14 9 6 2 11 17 17 23 21 44 71 70 78
13 12 12 12 13 11 14 11 14 14 10 13 16 17 18 24 30 39 41 41 44 53 50 44 43 46 46 43 41 33 29 30 29 26 17 13 13 11 5 3 4 6 9 16 23 23 37 63 75
8 10 12 15 13 13 8 9 17 8 4 9 13 12 13 17 21 30 41 40 39 39 38 39 41 40 39 36 36 37 36 33 28 17 16 10 13 10 6 6 2 2 1 7 15 24 33 40 46
15 7 10 11 7 10 8 10 12 5 14 13 13 8 7 16 27 33 35 40 34 28 23 24 25 28 30 36 40 38 39 32 28 21 9 6 3 4 1 5 5 3 2 4 6 16 28 37 45
10 14 8 9 8 8 10 4 10 9 5 12 15 5 10 17 25 28 15 20 34 30 19 23 24 29 33 30 29 36 38 35 31 25 14 10 9 7 1 6 10 11 9 9 10 13 16 21 28
11 10 11 10 9 11 12 13 14 2 9 15 21 12 13 20 21 21 5 11 22 10 13 21 25 27 31 30 35 43 44 38 36 27 24 23 15 13 8 6 6 7 5 7 7 8 13 16 23
Wind_Direction_850mb
293 310 321 293 259 237 135 93 93 35 20 38 215 233 325 330 339 26 142 159 160 160 167 168 166 165 165 163 161 156 151 148 145 143 143 143 143 142 143 145 145 144 140 133 126 123 128 128 127
288 310 281 275 257 230 116 100 56 4 11 47 263 243 248 56 11 110 144 159 160 161 166 168 167 166 165 166 165 158 153 151 149 146 147 149 151 151 147 147 152 156 159 156 150 144 137 143 149
281 233 265 256 250 252 123 86 350 339 320 332 249 286 341 42 50 157 167 158 159 160 164 169 167 168 167 170 168 162 156 153 151 147 149 153 154 156 156 155 156 162 179 181 171 162 156 155 150
229 215 230 249 214 77 324 358 349 324 306 248 257 286 112 63 61 163 154 155 160 161 163 167 168 170 171 172 172 166 161 157 153 149 146 146 151 156 161 168 168 176 193 194 188 179 178 173 170
204 235 232 236 223 259 81 353 333 333 294 263 235 237 64 36 103 143 153 157 159 163 167 169 170 173 174 175 176 171 166 161 158 154 148 144 147 156 162 171 182 180 187 196 190 184 186 189 188
216 267 227 218 150 135 73 342 328 330 5 223 198 210 77 105 120 144 155 158 163 166 168 175 175 178 179 180 181 178 173 170 167 162 156 152 152 157 160 162 180 185 176 181 188 182 177 185 194
265 236 260 216 147 160 24 339 354 337 328 150 54 166 101 129 135 150 157 162 168 170 170 180 180 182 185 187 187 185 182 178 174 172 171 167 161 162 164 156 147 148 157 173 182 185 184 185 194
255 265 207 201 176 103 19 343 8 352 67 114 139 70 117 159 147 152 159 166 174 176 177 179 184 187 189 192 193 193 191 188 185 184 185 181 179 182 177 159 143 136 127 122 143 181 195 197 202
223 239 202 138 193 84 19 349 20 18 167 139 100 75 111 151 154 156 164 173 179 184 185 185 186 189 189 195 197 196 198 197 196 197 196 190 181 197 194 186 174 142 123 112 110 113 122 170 194
244 262 114 61 29 313 322 336 357 328 165 146 124 87 121 151 165 172 178 184 187 189 190 189 190 196 192 197 203 200 204 203 204 205 207 194 202 195 182 207 185 158 143 134 127 121 111 104 175
180 285 129 172 315 315 311 294 332 319 131 52 56 105 145 163 179 187 192 197 198 197 195 192 189 198 198 199 202 201 205 205 208 209 209 204 207 216 206 201 191 182 178 168 171 146 101 195 185
216 162 219 29 308 310 306 322 301 314 11 330 5 52 158 185 195 197 203 205 204 203 200 197 202 209 199 203 203 208 206 210 208 215 217 212 210 214 200 198 197 190 204 208 203 228 210 183 177
241 160 204 251 286 293 299 281 315 282 354 353 0 335 218 221 218 215 212 212 208 207 206 203 204 212 212 198 209 209 214 217 216 216 221 212 210 211 210 211 204 207 215 218 225 218 227 239 262
89 249 260 273 286 271 277 272 283 195 334 324 324 293 258 246 238 229 221 215 211 207 208 205 206 217 216 215 226 225 219 220 218 222 220 222 218 220 215 220 218 220 221 223 222 246 245 257 257
214 259 192 175 2 121 308 253 230 268 321 314 303 300 287 261 251 246 239 226 221 215 206 205 207 216 222 222 221 227 226 225 227 225 227 230 229 233 220 221 224 227 226 227 241 248 255 252 258
240 240 215 128 283 133 294 263 72 277 331 302 302 312 311 279 260 257 254 242 229 219 212 204 208 216 221 220 228 228 226 240 229 227 227 233 232 228 235 231 233 235 234 238 241 241 245 254 250
198 227 252 177 121 321 253 311 291 294 313 318 331 330 331 302 260 256 261 253 238 233 223 215 212 211 219 222 220 222 224 238 237 239 234 239 235 233 239 232 232 242 238 237 244 251 248 250 251
142 233 202 258 104 295 261 269 306 15 328 5 5 0 356 345 315 292 275 256 243 235 226 220 218 216 214 218 224 228 232 239 231 231 231 243 243 243 239 233 225 237 236 240 241 242 244 240 238
31 271 285 305 76 298 275 284 282 355 16 22 17 15 8 4 352 337 317 292 241 233 227 223 219 219 214 217 219 225 225 229 232 236 238 239 248 233 227 223 224 226 222 232 237 252 252 248 247
253 269 288 275 310 302 287 289 279 71 49 41 26 22 12 7 359 351 355 342 304 251 237 229 222 221 220 218 221 222 225 227 229 235 237 242 249 243 239 240 233 242 249 252 260 259 251 239 242
237 319 326 312 309 270 279 266 216 133 80 43 31 25 17 9 9 4 2 353 348 297 255 231 225 218 221 213 222 222 227 220 229 226 236 239 240 242 242 240 248 257 256 253 255 249 288 238 219
267 9 290 297 305 302 20 295 184 156 134 38 23 22 18 14 13 8 8 9 357 294 244 210 212 210 218 214 215 214 222 234 231 229 227 222 237 249 239 249 259 256 262 252 254 238 289 256 258
350 319 293 292 288 290 251 244 116 141 129 17 14 19 16 18 22 16 30 42 47 30 301 231 185 180 182 205 200 215 212 226 222 216 216 220 220 224 237 249 258 276 268 257 237 245 264 299 267
305 287 281 278 256 241 94 267 106 57 12 3 14 21 18 26 34 36 35 48 68 66 73 121 180 180 191 199 205 201 195 193 195 190 190 204 208 213 239 258 259 253 249 253 229 244 230 238 246
304 303 276 233 202 297 123 270 59 86 35 19 17 25 27 37 45 47 39 33 58 67 58 67 74 96 107 157 168 171 160 169 153 159 173 172 145 133 195 286 270 258 245 226 230 222 226 240 222
315 318 299 287 292 325 185 249 104 67 66 38 32 42 39 55 57 60 64 54 40 51 55 53 53 63 69 77 81 82 90 96 92 76 62 111 136 130 155 212 285 233 250 256 239 242 232 231 236
96 262 16 286 235 264 230 137 148 106 73 30 25 36 60 70 84 70 76 53 44 56 41 50 55 57 57 61 65 71 72 73 65 82 62 44 73 86 84 92 93 39 155 257 237 247 241 234 239
290 52 218 197 262 263 210 255 274 92 360 4 15 45 112 113 107 103 61 37 19 23 34 35 46 53 53 50 52 52 52 52 66 73 80 17 43 160 226 297 298 312 321 298 257 269 254 245 244
178 207 241 304 273 277 285 264 79 327 15 334 340 327 172 166 141 143 59 5 13 29 33 63 45 50 49 44 40 43 35 27 17 33 17 12 347 336 321 281 288 289 286 272 268 267 264 262 260
273 265 256 267 220 258 307 273 43 104 358 328 311 274 216 194 189 182 206 330 342 28 59 40 41 29 24 28 23 23 16 5 1 346 342 354 338 330 354 312 294 281 292 301 288 276 259 270 276